| time (UTC) | temp F | wind direction | speed MPH | gust MPH | rain 1hr in | rain 24hr in | rain mn in | humidity % | barometer mb |
| 20260506024513 | 73 | 196 | 7.0 | 11.0 | 0.00 | 0.00 | 0.00 | 43 | 1008.8 |
| 20260506023034 | 73 | 150 | 8.0 | 14.0 | 0.00 | 0.00 | 0.00 | 44 | 1009.0 |
| 20260506021533 | 73 | 177 | 4.0 | 7.0 | 0.00 | 0.00 | 0.00 | 44 | 1009.1 |
| 20260506020007 | 74 | 211 | 4.0 | 9.0 | 0.00 | 0.00 | 0.00 | 42 | 1008.9 |
| 20260506014513 | 74 | 184 | 8.0 | 10.0 | 0.00 | 0.00 | 0.00 | 42 | 1008.8 |
| 20260506013027 | 74 | 199 | 5.0 | 9.0 | 0.00 | 0.00 | 0.00 | 40 | 1008.7 |
| 20260506011524 | 75 | 195 | 5.0 | 8.0 | 0.00 | 0.00 | 0.00 | 40 | 1008.5 |
| 20260506010003 | 76 | 167 | 5.0 | 9.0 | 0.00 | 0.00 | 0.00 | 38 | 1008.2 |
| 20260506004511 | 76 | 208 | 5.0 | 12.0 | 0.00 | 0.00 | 0.00 | 38 | 1007.9 |
| 20260506003017 | 76 | 200 | 5.0 | 9.0 | 0.00 | 0.00 | 0.00 | 38 | 1008.0 |
| 20260506001503 | 76 | 187 | 5.0 | 10.0 | 0.00 | 0.00 | 0.00 | 38 | 1007.9 |
| 20260506000003 | 77 | 154 | 7.0 | 12.0 | 0.00 | 0.00 | 0.00 | 37 | 1007.7 |
| 20260505234507 | 77 | 212 | 5.0 | 10.0 | 0.00 | 0.00 | 0.00 | 38 | 1007.6 |
| 20260505233002 | 77 | 219 | 5.0 | 13.0 | 0.00 | 0.00 | 0.00 | 37 | 1007.5 |
| 20260505231503 | 78 | 192 | 5.0 | 10.0 | 0.00 | 0.00 | 0.00 | 37 | 1007.5 |
| 20260505230010 | 78 | 186 | 6.0 | 13.0 | 0.00 | 0.00 | 0.00 | 36 | 1007.4 |
| 20260505224505 | 78 | 192 | 4.0 | 11.0 | 0.00 | 0.00 | 0.00 | 36 | 1007.5 |
| 20260505223008 | 79 | 184 | 5.0 | 15.0 | 0.00 | 0.00 | 0.00 | 35 | 1007.3 |
| 20260505221503 | 79 | 191 | 5.0 | 13.0 | 0.00 | 0.00 | 0.00 | 35 | 1007.3 |
| 20260505220007 | 80 | 188 | 6.0 | 10.0 | 0.00 | 0.00 | 0.00 | 36 | 1007.2 |
| 20260505214504 | 80 | 214 | 7.0 | 11.0 | 0.00 | 0.00 | 0.00 | 36 | 1007.3 |
| 20260505213015 | 80 | 197 | 6.0 | 13.0 | 0.00 | 0.00 | 0.00 | 36 | 1007.1 |
| 20260505211514 | 80 | 168 | 7.0 | 14.0 | 0.00 | 0.00 | 0.00 | 37 | 1007.1 |
| 20260505210005 | 80 | 188 | 8.0 | 15.0 | 0.00 | 0.00 | 0.00 | 36 | 1007.1 |
| 20260505204504 | 80 | 206 | 5.0 | 14.0 | 0.00 | 0.00 | 0.00 | 36 | 1007.2 |
| 20260505203011 | 81 | 182 | 6.0 | 12.0 | 0.00 | 0.00 | 0.00 | 36 | 1007.1 |
| 20260505201521 | 80 | 192 | 4.0 | 11.0 | 0.00 | 0.00 | 0.00 | 37 | 1007.1 |
| 20260505200015 | 81 | 182 | 8.0 | 14.0 | 0.00 | 0.00 | 0.00 | 37 | 1007.1 |
| 20260505194504 | 81 | 206 | 5.0 | 11.0 | 0.00 | 0.00 | 0.00 | 37 | 1007.3 |
| 20260505193011 | 80 | 181 | 5.0 | 15.0 | 0.00 | 0.00 | 0.00 | 38 | 1007.4 |
| 20260505191511 | 80 | 184 | 7.0 | 14.0 | 0.00 | 0.00 | 0.00 | 38 | 1007.8 |
| 20260505190012 | 81 | 221 | 7.0 | 12.0 | 0.00 | 0.00 | 0.00 | 39 | 1007.7 |
| 20260505184520 | 81 | 220 | 7.0 | 15.0 | 0.00 | 0.00 | 0.00 | 39 | 1007.9 |
| 20260505183011 | 81 | 221 | 6.0 | 11.0 | 0.00 | 0.00 | 0.00 | 37 | 1008.1 |
| 20260505181504 | 81 | 190 | 6.0 | 14.0 | 0.00 | 0.00 | 0.00 | 35 | 1008.3 |
| 20260505180018 | 80 | 240 | 6.0 | 11.0 | 0.00 | 0.00 | 0.00 | 36 | 1008.3 |
| 20260505174527 | 80 | 205 | 7.0 | 14.0 | 0.00 | 0.00 | 0.00 | 35 | 1008.7 |
| 20260505173022 | 80 | 210 | 8.0 | 12.0 | 0.00 | 0.00 | 0.00 | 36 | 1008.7 |
| 20260505171506 | 80 | 231 | 7.0 | 12.0 | 0.00 | 0.00 | 0.00 | 36 | 1008.8 |
| 20260505170017 | 79 | 213 | 7.0 | 11.0 | 0.00 | 0.00 | 0.00 | 39 | 1009.0 |
| 20260505164511 | 79 | 211 | 6.0 | 14.0 | 0.00 | 0.00 | 0.00 | 41 | 1009.1 |
| 20260505163021 | 79 | 199 | 5.0 | 14.0 | 0.00 | 0.00 | 0.00 | 43 | 1009.5 |
| 20260505161524 | 79 | 203 | 5.0 | 10.0 | 0.00 | 0.00 | 0.00 | 46 | 1009.4 |
| 20260505153021 | 77 | 250 | 5.0 | 7.0 | 0.00 | 0.00 | 0.00 | 47 | 1009.6 |
| 20260505151520 | 76 | 179 | 3.0 | 7.0 | 0.00 | 0.00 | 0.00 | 48 | 1009.8 |
| 20260505124505 | 66 | 179 | 3.0 | 6.0 | 0.00 | 0.00 | 0.00 | 63 | 1011.0 |
| 20260505123009 | 64 | 198 | 2.0 | 5.0 | 0.00 | 0.00 | 0.00 | 65 | 1010.9 |
| 20260505121517 | 62 | 201 | 2.0 | 3.0 | 0.00 | 0.00 | 0.00 | 72 | 1010.8 |
| 20260505120003 | 57 | 194 | 0.0 | 2.0 | 0.00 | 0.00 | 0.00 | 88 | 1010.6 |
| 20260505114504 | 55 | 342 | 0.0 | 0.0 | 0.00 | 0.00 | 0.00 | 92 | 1010.7 |
| 20260505113016 | 53 | 342 | 0.0 | 2.0 | 0.00 | 0.00 | 0.00 | 92 | 1010.7 |
| 20260505111514 | 52 | 348 | 0.0 | 1.0 | 0.00 | 0.00 | 0.00 | 92 | 1010.6 |
| 20260505101517 | 50 | 348 | 0.0 | 2.0 | 0.00 | 0.00 | 0.00 | 90 | 1010.0 |
| 20260505100021 | 51 | 348 | 0.0 | 0.0 | 0.00 | 0.00 | 0.00 | 89 | 1010.0 |
| 20260505094527 | 52 | 348 | 0.0 | 2.0 | 0.00 | 0.00 | 0.00 | 89 | 1009.8 |
| 20260505093006 | 52 | 348 | 0.0 | 0.0 | 0.00 | 0.00 | 0.00 | 88 | 1009.8 |
| 20260505091508 | 53 | 348 | 0.0 | 0.0 | 0.00 | 0.00 | 0.00 | 87 | 1009.8 |
| 20260505090016 | 53 | 348 | 0.0 | 0.0 | 0.00 | 0.00 | 0.00 | 86 | 1009.8 |
| 20260505084520 | 55 | 348 | 0.0 | 0.0 | 0.00 | 0.00 | 0.00 | 83 | 1009.9 |
| 20260505083028 | 56 | 321 | 0.0 | 0.0 | 0.00 | 0.00 | 0.00 | 81 | 1009.7 |
| 20260505081510 | 58 | 321 | 0.0 | 0.0 | 0.00 | 0.00 | 0.00 | 77 | 1009.7 |
| 20260505080013 | 58 | 321 | 0.0 | 0.0 | 0.00 | 0.00 | 0.00 | 73 | 1009.6 |
| 20260505074520 | 57 | 321 | 0.0 | 2.0 | 0.00 | 0.00 | 0.00 | 73 | 1009.3 |
| 20260505073027 | 56 | 322 | 0.0 | 2.0 | 0.00 | 0.00 | 0.00 | 74 | 1009.3 |
| 20260505071525 | 56 | 322 | 0.0 | 2.0 | 0.00 | 0.00 | 0.00 | 74 | 1009.4 |
| 20260505070010 | 55 | 321 | 0.0 | 2.0 | 0.00 | 0.00 | 0.00 | 74 | 1009.8 |
| 20260505064513 | 56 | 330 | 0.0 | 2.0 | 0.00 | 0.00 | 0.00 | 72 | 1009.7 |
| 20260505063025 | 56 | 330 | 0.0 | 2.0 | 0.00 | 0.00 | 0.00 | 72 | 1009.7 |
| 20260505061523 | 57 | 257 | 0.0 | 2.0 | 0.00 | 0.00 | 0.00 | 70 | 1009.7 |
| 20260505060020 | 57 | 257 | 0.0 | 2.0 | 0.00 | 0.00 | 0.00 | 67 | 1009.8 |
| 20260505054506 | 58 | 226 | 0.0 | 1.0 | 0.00 | 0.00 | 0.00 | 65 | 1009.6 |
| 20260505053002 | 59 | 226 | 0.0 | 2.0 | 0.00 | 0.00 | 0.00 | 63 | 1009.7 |
| 20260505051503 | 60 | 17 | 0.0 | 2.0 | 0.00 | 0.00 | 0.00 | 61 | 1009.5 |
| 20260505041503 | 60 | 265 | 0.0 | 2.0 | 0.00 | 0.00 | 0.00 | 59 | 1009.5 |
| 20260505040006 | 61 | 339 | 0.0 | 4.0 | 0.00 | 0.00 | 0.00 | 56 | 1009.4 |
| 20260505034507 | 61 | 333 | 0.0 | 2.0 | 0.00 | 0.00 | 0.00 | 56 | 1009.2 |
| 20260505033017 | 61 | 346 | 0.0 | 2.0 | 0.00 | 0.00 | 0.00 | 53 | 1009.2 |
| 20260505031510 | 63 | 166 | 0.0 | 3.0 | 0.00 | 0.00 | 0.00 | 51 | 1009.2 |
| 20260505030004 | 64 | 336 | 0.0 | 2.0 | 0.00 | 0.00 | 0.00 | 47 | 1009.2 |